Volver al catálogo

ATLAS 5 CENTAUR DEB

ActivoHEO
NORAD 43958·DEBRIS·🇺🇸 United States

Lanzado Sep 17, 2014 desde Cape Canaveral Space Force Station

Loading…

Próximos Pases (próximas 24 horas)

TLE

ActualizadoSource: Space-Track

Época: Sep 10, 2026, 07:21 UTC

1 43958U 14055M   26253.30660469 -.00000107  00000-0  00000+0 0  9994
2 43958  20.5054 127.3155 4661272 195.2919 143.6219  1.89320501 55516

Sigue ATLAS 5 CENTAUR DEB en tiempo real con AllMySat

Download on the App Store